Location: Miles
(41.4492°N, 81.6087°W)
Time: 15:24:51
(UTC+00:00)

Vanguard 1 Rocket - Pass Details

Date: 12 September 2024
Orbit: 650 x 4218 km, 34.3° (Epoch: 07 October)

Event Time Altitude Azimuth Distance (km) Brightness Sun altitude
Rises 16:20:20 0° 285° (WNW) 8,243 12.0 49.9°
Reaches altitude 10° 16:26:36 10° 279° (W) 7,378 11.9 50.3°
Maximum altitude 16:48:13 36° 224° (SW) 5,111 12.0 51.6°
Drops below altitude 10° 17:04:56 10° 165° (SSE) 5,708 12.3 52.1°
Sets 17:09:05 0° 156° (SSE) 6,276 12.2 52.2°
